Tracking 28790 objects as of 19-Apr-2024
HD Live streaming from Space Station
objects crossing your sky now

FENGYUN 1C DEB

Track FENGYUN 1C DEB now!
10-day predictions


NORAD ID: 31430
Int'l Code: 1999-025BTS
Perigee: 810.1 km
Apogee: 849.9 km
Inclination: 98.8 °
Period: 101.4 minutes
Semi major axis: 7201 km
RCS: 0.011 m2 (small)
Launch date: May 10, 1999
Source: People's Republic of China (PRC)
Launch site: Taiyaun Space Center, China (TSC)

Note: This is SATELLITE DEBRIS
Your satellite tracking list
Your tracking list is empty




NASA's NSSDC Master Catalog

Two Line Element Set (TLE):
1 31430U 99025BTS 24109.09630722  .00005405  00000-0  25155-2 0  9995
2 31430  98.7929 168.1715 0027618 348.6524  41.0025 14.20731241875302
Source of the keplerian elements: AFSPC